DIRECTV 9S (29494 NORAD) Tracking and Keplerian Element Data

This shows tracking and keplerian element data for the satellite.

Feedback or suggestion? Click here.




ElementValue
Catalog29494
NameDIRECTV 9S
Epoch Orbit4311
Epoch Day198.56006465
Epoch Year2018
RAAN99.4838
Inclination0.0179
Eccentricity0.0003147
Argument of Perigee17.8884
Mean Anonmoly278.4614
Mean Motion1.00271321
Decay Rate-1.34E-06
L11 29494U 06043A 18198.56006465 -.00000134 00000-0 00000+0 0 9998
L22 29494 0.0179 99.4838 0003147 17.8884 278.4614 1.00271321 43117

Live tracking and technical data element details for DIRECTV 9S (NORAD 29494). DIRECTV 9S can be tracked NOW for your location showing map with azimuth and elevation plus other details from your city location.

Track the satellite on the map from your city or location and see movement details for azimuth, elevation, latitude, longitude, range, height, and movement on the map or in text.







IsCatalogInMostPopularTable: catalog: 29494, numindb: 41
Update: records affected: 1



GetName: 29494 DIRECTV 9S

Hit Count: updated at: Sat, 21 Jul 2018 07:41:37 GMT